Location: DaVinci Observatory
(43.1080°N, 78.6453°W)
Time: 07:29:45
(UTC-05:00)

Vanguard 1 Rocket - Visible Passes

Search period start: 12 December 2017 00:00
Search period end: 22 December 2017 00:00
Orbit: 656 x 4222 km, 34.3° (Epoch: 11 December)

Date Brightness Start Highest point End Pass type
(mag) Time Alt. Az. Time Alt. Az. Time Alt. Az.
12 Dec11.701:25:36SSE01:25:36SSE00:43:08Wvisible
12 Dec 9.9 18:36:41 10° WSW 18:48:25 61° SSE 19:01:21 28° ESE visible
12 Dec 10.2 21:01:49 10° W 21:18:04 61° SSW 21:18:37 61° S visible
12 Dec 11.2 23:29:38 10° W 23:35:55 24° W 23:35:55 24° W visible
13 Dec 9.8 17:26:31 10° SW 17:36:11 51° SSE 17:54:08 11° E visible
13 Dec 10.0 19:50:34 10° W 20:04:18 64° S 20:11:26 48° SE visible
13 Dec 10.7 22:16:54 10° W 22:28:43 43° WSW 22:28:43 43° WSW visible
14 Dec11.701:27:44S01:27:44S00:46:01Wvisible
14 Dec 9.8 18:39:50 10° WSW 18:51:14 62° S 19:04:17 27° ESE visible
14 Dec 10.3 21:05:02 10° W 21:20:41 57° SSW 21:21:34 57° S visible
14 Dec 11.3 23:33:09 10° W 23:38:52 22° WSW 23:38:52 22° WSW visible
15 Dec 9.7 17:29:33 10° WSW 17:38:56 54° SSE 17:57:03 10° E visible
15 Dec 10.0 19:53:47 10° W 20:07:06 61° S 20:14:29 45° SE visible
15 Dec 10.7 22:20:14 10° W 22:31:47 39° SW 22:31:47 39° SW visible
16 Dec 9.8 18:43:01 10° WSW 18:54:06 61° S 19:07:28 25° ESE visible
16 Dec 10.4 21:08:18 10° W 21:23:20 51° SSW 21:24:46 51° S visible
16 Dec 11.3 23:37:01 10° W 23:42:04 19° WSW 23:42:04 19° WSW visible
17 Dec 9.6 17:32:42 10° WSW 17:41:49 56° SSE 17:59:36 10° E visible
17 Dec 10.1 19:57:03 10° W 20:09:55 57° SSW 20:17:50 41° SE visible
17 Dec 10.8 22:23:44 10° W 22:35:09 35° SW 22:35:09 35° SW visible
18 Dec 9.8 18:46:16 10° WSW 18:57:01 59° S 19:10:59 23° ESE visible
18 Dec 10.5 21:11:39 10° W 21:26:01 45° SSW 21:28:19 44° S visible
18 Dec 11.4 23:41:27 10° W 23:45:39 16° WSW 23:45:39 16° WSW visible
19 Dec 9.6 17:35:54 10° WSW 17:44:46 57° S 18:02:07 10° ESE visible
19 Dec 10.1 20:00:21 10° W 20:12:45 52° SSW 20:21:36 36° SE visible
19 Dec 11.0 22:27:29 10° W 22:38:57 30° SW 22:38:57 30° SW visible
20 Dec 9.8 18:49:34 10° W 18:59:58 56° S 19:15:02 19° ESE visible
20 Dec 10.6 21:15:09 10° W 21:28:42 39° SSW 21:32:23 37° S visible
20 Dec 11.5 23:46:58 10° WSW 23:49:45 13° WSW 23:49:45 13° WSW visible
21 Dec 9.5 17:39:10 10° WSW 17:47:47 56° S 18:04:35 10° ESE visible
21 Dec 10.3 20:03:44 10° W 20:15:36 46° SSW 20:26:01 29° SSE visible
21 Dec 11.1 22:31:40 10° W 22:43:23 24° SW 22:43:23 24° SW visible
